INTELSAT 32E (IS-32E)

Last updated on Thu Sep 10 2026 00:02:59 GMT+0000 (Coordinated Universal Time)

1 41945U 17007B 26252.34211390 -.00000290 00000+0 00000+0 0 9998 2 41945 0.0226 242.3954 0000595 186.2269 359.7488 1.00269120 35066
UTC large
Height (km)
Speed (km/s)
/
Latitude / Longitude
Inclination (degrees)
Orbital Period (minutes)
Azimuth
Elevation
Range (km)
Doppler Factor

Next 0 passes for location: London (51.5072 / 0.1276)

No passes found over London.
INTELSAT 32E (IS-32E)